Time,TemperatureF,DewpointF,PressureIn,WindDirection,WindDirectionDegrees,WindSpeedMPH,WindSpeedGustMPH,Humidity,HourlyPrecipIn,Conditions,Clouds,dailyrainin,SoftwareType,DateUTC
2012-06-17 00:00:00,76.0,65.6,30.03,NNE,24,0.0,0.0,70,0.00,,,0.00,VWS V13.01,2012-06-17 05:00:00,
2012-06-17 00:05:00,75.9,65.8,30.03,NNE,24,0.0,0.0,71,0.00,,,0.00,VWS V13.01,2012-06-17 05:05:00,
2012-06-17 00:10:00,75.7,66.0,30.03,NNE,24,0.0,0.0,72,0.00,,,0.00,VWS V13.01,2012-06-17 05:10:00,
2012-06-17 00:15:00,75.5,65.8,30.03,NNE,24,0.0,0.0,72,0.00,,,0.00,VWS V13.01,2012-06-17 05:15:00,
2012-06-17 00:20:00,75.3,66.1,30.03,NNE,24,0.0,0.0,73,0.00,,,0.00,VWS V13.01,2012-06-17 05:20:00,
2012-06-17 00:25:00,75.3,66.5,30.03,NNE,24,0.0,0.0,74,0.00,,,0.00,VWS V13.01,2012-06-17 05:25:00,
2012-06-17 00:30:00,75.1,65.9,30.03,NNE,24,0.0,0.0,73,0.00,,,0.00,VWS V13.01,2012-06-17 05:30:00,
2012-06-17 00:35:00,75.0,66.1,30.03,NNE,24,0.0,0.0,74,0.00,,,0.00,VWS V13.01,2012-06-17 05:35:00,
2012-06-17 00:40:00,75.0,65.7,30.03,NNE,24,0.0,0.0,73,0.00,,,0.00,VWS V13.01,2012-06-17 05:40:00,
2012-06-17 00:45:00,75.0,65.7,30.03,NNE,24,0.0,0.0,73,0.00,,,0.00,VWS V13.01,2012-06-17 05:45:00,
2012-06-17 00:50:00,74.8,65.6,30.03,NNE,24,0.0,0.0,73,0.00,,,0.00,VWS V13.01,2012-06-17 05:50:00,
2012-06-17 00:55:00,74.6,65.4,30.03,NNE,24,0.0,0.0,73,0.00,,,0.00,VWS V13.01,2012-06-17 05:55:00,
2012-06-17 01:00:00,74.4,66.0,30.03,NNE,12,0.0,0.0,75,0.00,,,0.00,VWS V13.01,2012-06-17 06:00:00,
2012-06-17 01:05:00,74.2,66.2,30.03,North,9,0.0,0.0,76,0.00,,,0.00,VWS V13.01,2012-06-17 06:05:00,
2012-06-17 01:10:00,74.1,65.6,30.03,NW,322,0.0,0.0,75,0.00,,,0.00,VWS V13.01,2012-06-17 06:10:00,
2012-06-17 01:15:00,74.2,65.8,30.03,North,6,0.0,0.0,75,0.00,,,0.00,VWS V13.01,2012-06-17 06:15:00,
2012-06-17 01:20:00,74.2,65.8,30.03,ENE,65,0.0,0.0,75,0.00,,,0.00,VWS V13.01,2012-06-17 06:20:00,
2012-06-17 01:25:00,74.1,65.6,30.03,ENE,65,0.0,0.0,75,0.00,,,0.00,VWS V13.01,2012-06-17 06:25:00,
2012-06-17 01:30:00,73.7,65.3,30.00,ENE,65,0.0,0.0,75,0.00,,,0.00,VWS V13.01,2012-06-17 06:30:00,
2012-06-17 01:35:00,73.5,65.9,30.00,NE,55,0.0,0.0,77,0.00,,,0.00,VWS V13.01,2012-06-17 06:35:00,
2012-06-17 01:40:00,73.3,65.7,30.00,NE,55,0.0,0.0,77,0.00,,,0.00,VWS V13.01,2012-06-17 06:40:00,
2012-06-17 01:45:00,73.3,65.7,30.00,North,4,0.0,0.0,77,0.00,,,0.00,VWS V13.01,2012-06-17 06:45:00,
2012-06-17 01:50:00,73.3,66.1,30.00,North,5,0.0,0.0,78,0.00,,,0.00,VWS V13.01,2012-06-17 06:50:00,
2012-06-17 01:55:00,73.2,65.9,30.00,NNE,25,0.0,0.0,78,0.00,,,0.00,VWS V13.01,2012-06-17 06:55:00,
2012-06-17 02:00:00,73.2,66.3,30.00,North,9,0.0,0.0,79,0.00,,,0.00,VWS V13.01,2012-06-17 07:00:00,
2012-06-17 02:05:00,73.2,65.9,30.00,North,9,0.0,0.0,78,0.00,,,0.00,VWS V13.01,2012-06-17 07:05:00,
2012-06-17 02:10:00,73.2,65.9,30.00,North,9,0.0,0.0,78,0.00,,,0.00,VWS V13.01,2012-06-17 07:10:00,
2012-06-17 02:15:00,73.2,65.9,30.00,NNE,24,0.0,0.0,78,0.00,,,0.00,VWS V13.01,2012-06-17 07:15:00,
2012-06-17 02:20:00,73.0,66.1,30.00,NNE,29,0.0,0.0,79,0.00,,,0.00,VWS V13.01,2012-06-17 07:20:00,
2012-06-17 02:25:00,72.8,65.9,30.00,NNE,29,0.0,0.0,79,0.00,,,0.00,VWS V13.01,2012-06-17 07:25:00,
2012-06-17 02:30:00,72.8,66.3,30.00,NNE,28,0.0,0.0,80,0.00,,,0.00,VWS V13.01,2012-06-17 07:30:00,
2012-06-17 02:35:00,72.8,65.9,30.00,NNE,28,0.0,0.0,79,0.00,,,0.00,VWS V13.01,2012-06-17 07:35:00,
2012-06-17 02:40:00,72.6,65.7,30.00,NNE,28,0.0,0.0,79,0.00,,,0.00,VWS V13.01,2012-06-17 07:40:00,
2012-06-17 02:45:00,72.6,65.7,30.00,NNE,28,0.0,0.0,79,0.00,,,0.00,VWS V13.01,2012-06-17 07:45:00,
2012-06-17 02:50:00,72.6,66.1,30.00,NNE,28,0.0,0.0,80,0.00,,,0.00,VWS V13.01,2012-06-17 07:50:00,
2012-06-17 02:55:00,72.4,65.9,30.00,NNE,28,0.0,0.0,80,0.00,,,0.00,VWS V13.01,2012-06-17 07:55:00,
2012-06-17 03:00:00,72.4,65.9,30.00,NNE,28,0.0,0.0,80,0.00,,,0.00,VWS V13.01,2012-06-17 08:00:00,
2012-06-17 03:05:00,72.3,65.8,30.00,NNE,28,0.0,0.0,80,0.00,,,0.00,VWS V13.01,2012-06-17 08:05:00,
2012-06-17 03:10:00,72.3,65.8,30.00,NNE,28,0.0,0.0,80,0.00,,,0.00,VWS V13.01,2012-06-17 08:10:00,
2012-06-17 03:15:00,72.1,65.6,30.00,NNE,28,0.0,0.0,80,0.00,,,0.00,VWS V13.01,2012-06-17 08:15:00,
2012-06-17 03:20:00,71.9,66.1,30.00,NNE,28,0.0,0.0,82,0.00,,,0.00,VWS V13.01,2012-06-17 08:20:00,
2012-06-17 03:25:00,71.9,66.5,30.00,NNE,28,0.0,0.0,83,0.00,,,0.00,VWS V13.01,2012-06-17 08:25:00,
2012-06-17 03:30:00,71.7,65.9,30.00,NNE,28,0.0,0.0,82,0.00,,,0.00,VWS V13.01,2012-06-17 08:30:00,
2012-06-17 03:35:00,71.5,66.1,30.00,NE,35,3.1,3.6,83,0.00,,,0.00,VWS V13.01,2012-06-17 08:35:00,
2012-06-17 03:40:00,71.4,65.9,30.00,NE,35,0.0,0.0,83,0.00,,,0.00,VWS V13.01,2012-06-17 08:40:00,
2012-06-17 03:45:00,71.4,66.3,30.00,NE,35,0.0,0.0,84,0.00,,,0.00,VWS V13.01,2012-06-17 08:45:00,
2012-06-17 03:50:00,71.2,66.1,30.00,NE,35,0.0,0.0,84,0.00,,,0.00,VWS V13.01,2012-06-17 08:50:00,
2012-06-17 03:55:00,71.0,66.3,30.00,NE,35,0.0,0.0,85,0.00,,,0.00,VWS V13.01,2012-06-17 08:55:00,
2012-06-17 03:59:00,71.0,66.6,30.00,NE,35,0.0,0.0,86,0.00,,,0.00,VWS V13.01,2012-06-17 08:59:00,
2012-06-17 04:04:00,70.8,66.8,30.00,NE,35,0.0,0.0,87,0.00,,,0.00,VWS V13.01,2012-06-17 09:04:00,
2012-06-17 04:09:00,70.8,67.1,30.00,NE,35,0.0,0.0,88,0.00,,,0.00,VWS V13.01,2012-06-17 09:09:00,
2012-06-17 04:14:00,70.8,67.1,30.00,NE,35,0.0,0.0,88,0.00,,,0.00,VWS V13.01,2012-06-17 09:14:00,
2012-06-17 04:19:00,70.8,67.1,30.00,NE,35,0.0,0.0,88,0.00,,,0.00,VWS V13.01,2012-06-17 09:19:00,
2012-06-17 04:24:00,70.8,66.8,30.00,NE,35,0.0,0.0,87,0.00,,,0.00,VWS V13.01,2012-06-17 09:24:00,
2012-06-17 04:29:00,70.8,66.8,30.00,NE,35,0.0,0.0,87,0.00,,,0.00,VWS V13.01,2012-06-17 09:29:00,
2012-06-17 04:34:00,70.6,66.2,30.00,NE,35,0.0,0.0,86,0.00,,,0.00,VWS V13.01,2012-06-17 09:34:00,
2012-06-17 04:39:00,70.5,66.1,30.00,NE,35,0.0,0.0,86,0.00,,,0.00,VWS V13.01,2012-06-17 09:39:00,
2012-06-17 04:44:00,70.3,65.9,30.00,NE,35,0.0,0.0,86,0.00,,,0.00,VWS V13.01,2012-06-17 09:44:00,
2012-06-17 04:49:00,70.3,66.6,30.00,NE,35,0.0,0.0,88,0.00,,,0.00,VWS V13.01,2012-06-17 09:49:00,
2012-06-17 04:54:00,70.3,66.6,30.00,NE,35,0.0,0.0,88,0.00,,,0.00,VWS V13.01,2012-06-17 09:54:00,
2012-06-17 04:59:00,70.3,66.9,30.00,NE,35,0.0,0.0,89,0.00,,,0.00,VWS V13.01,2012-06-17 09:59:00,
2012-06-17 05:04:00,70.3,66.9,30.00,NE,35,0.0,0.0,89,0.00,,,0.00,VWS V13.01,2012-06-17 10:04:00,
2012-06-17 05:09:00,70.3,66.9,30.00,NE,35,0.0,0.0,89,0.00,,,0.00,VWS V13.01,2012-06-17 10:09:00,
2012-06-17 05:14:00,70.3,66.9,30.00,NE,35,0.0,0.0,89,0.00,,,0.00,VWS V13.01,2012-06-17 10:14:00,
2012-06-17 05:19:00,70.1,66.7,30.00,NE,35,0.0,0.0,89,0.00,,,0.00,VWS V13.01,2012-06-17 10:19:00,
2012-06-17 05:24:00,70.1,66.7,30.00,NE,35,0.0,0.0,89,0.00,,,0.00,VWS V13.01,2012-06-17 10:24:00,
2012-06-17 05:29:00,69.9,66.5,30.00,NNE,25,0.0,0.0,89,0.00,,,0.00,VWS V13.01,2012-06-17 10:29:00,
2012-06-17 05:34:00,69.9,66.9,30.00,NNE,25,0.0,0.0,90,0.00,,,0.00,VWS V13.01,2012-06-17 10:34:00,
2012-06-17 05:39:00,69.9,66.9,30.00,NNE,25,0.0,0.0,90,0.00,,,0.00,VWS V13.01,2012-06-17 10:39:00,
2012-06-17 05:44:00,69.9,66.9,30.03,NNE,25,0.0,0.0,90,0.00,,,0.00,VWS V13.01,2012-06-17 10:44:00,
2012-06-17 05:49:00,69.7,66.7,30.03,NNE,25,0.0,0.0,90,0.00,,,0.00,VWS V13.01,2012-06-17 10:49:00,
2012-06-17 05:54:00,69.7,66.7,30.03,NNE,25,0.0,0.0,90,0.00,,,0.00,VWS V13.01,2012-06-17 10:54:00,
2012-06-17 05:59:00,69.6,66.5,30.03,NNE,25,0.0,0.0,90,0.00,,,0.00,VWS V13.01,2012-06-17 10:59:00,
2012-06-17 06:04:00,69.6,66.5,30.03,NE,44,0.0,0.0,90,0.00,,,0.00,VWS V13.01,2012-06-17 11:04:00,
2012-06-17 06:09:00,69.4,66.3,30.03,NE,44,0.0,0.0,90,0.00,,,0.00,VWS V13.01,2012-06-17 11:09:00,
2012-06-17 06:14:00,69.4,66.6,30.03,NE,44,0.0,0.0,91,0.00,,,0.00,VWS V13.01,2012-06-17 11:14:00,
2012-06-17 06:19:00,69.4,66.6,30.03,NE,44,0.0,0.0,91,0.00,,,0.00,VWS V13.01,2012-06-17 11:19:00,
2012-06-17 06:24:00,69.4,67.0,30.03,NE,44,0.0,0.0,92,0.00,,,0.00,VWS V13.01,2012-06-17 11:24:00,
2012-06-17 06:29:00,69.2,66.8,30.03,NE,44,0.0,0.0,92,0.00,,,0.00,VWS V13.01,2012-06-17 11:29:00,
2012-06-17 06:34:00,69.2,66.8,30.03,NE,44,0.0,0.0,92,0.00,,,0.00,VWS V13.01,2012-06-17 11:34:00,
2012-06-17 06:39:00,69.4,67.0,30.03,NE,44,0.0,0.0,92,0.00,,,0.00,VWS V13.01,2012-06-17 11:39:00,
2012-06-17 06:44:00,69.4,67.0,30.03,NE,44,0.0,0.0,92,0.00,,,0.00,VWS V13.01,2012-06-17 11:44:00,
2012-06-17 06:49:00,69.6,67.4,30.03,NE,44,0.0,0.0,93,0.00,,,0.00,VWS V13.01,2012-06-17 11:49:00,
2012-06-17 06:54:00,69.9,68.1,30.03,NE,44,0.0,0.0,94,0.00,,,0.00,VWS V13.01,2012-06-17 11:54:00,
2012-06-17 06:59:00,70.3,68.2,30.03,NE,44,0.0,0.0,93,0.00,,,0.00,VWS V13.01,2012-06-17 11:59:00,
2012-06-17 07:04:00,70.8,68.1,30.03,NE,44,0.0,0.0,91,0.00,,,0.00,VWS V13.01,2012-06-17 12:04:00,
2012-06-17 07:09:00,71.4,68.3,30.03,NE,44,0.0,0.0,90,0.00,,,0.00,VWS V13.01,2012-06-17 12:09:00,
2012-06-17 07:14:00,71.9,67.5,30.03,NE,45,2.7,2.7,86,0.00,,,0.00,VWS V13.01,2012-06-17 12:14:00,
2012-06-17 07:19:00,72.6,67.2,30.03,NE,45,0.0,0.0,83,0.00,,,0.00,VWS V13.01,2012-06-17 12:19:00,
2012-06-17 07:24:00,73.5,67.0,30.03,NE,45,0.0,0.0,80,0.00,,,0.00,VWS V13.01,2012-06-17 12:24:00,
2012-06-17 07:29:00,74.2,66.9,30.03,NE,45,0.0,0.0,78,0.00,,,0.00,VWS V13.01,2012-06-17 12:29:00,
2012-06-17 07:34:00,74.8,65.9,30.03,North,357,0.0,0.0,74,0.00,,,0.00,VWS V13.01,2012-06-17 12:34:00,
2012-06-17 07:39:00,75.3,66.5,30.03,NNE,13,0.0,0.0,74,0.00,,,0.00,VWS V13.01,2012-06-17 12:39:00,
2012-06-17 07:44:00,76.2,65.7,30.03,NNE,23,4.0,4.0,70,0.00,,,0.00,VWS V13.01,2012-06-17 12:44:00,
2012-06-17 07:49:00,76.8,65.4,30.03,North,355,0.0,0.0,68,0.00,,,0.00,VWS V13.01,2012-06-17 12:49:00,
2012-06-17 07:54:00,77.5,65.7,30.03,ENE,65,4.0,4.0,67,0.00,,,0.00,VWS V13.01,2012-06-17 12:54:00,
2012-06-17 07:59:00,78.2,65.5,30.03,ENE,62,0.0,0.0,65,0.00,,,0.00,VWS V13.01,2012-06-17 12:59:00,
2012-06-17 08:04:00,78.7,64.6,30.03,NE,50,2.7,2.7,62,0.00,,,0.00,VWS V13.01,2012-06-17 13:04:00,
2012-06-17 08:09:00,79.5,64.8,30.03,East,98,0.0,4.0,61,0.00,,,0.00,VWS V13.01,2012-06-17 13:09:00,
2012-06-17 08:14:00,79.8,64.2,30.03,NNE,31,2.7,3.1,59,0.00,,,0.00,VWS V13.01,2012-06-17 13:14:00,
2012-06-17 08:19:00,80.2,64.1,30.03,ENE,77,0.0,0.0,58,0.00,,,0.00,VWS V13.01,2012-06-17 13:19:00,
2012-06-17 08:24:00,80.7,64.1,30.03,NE,41,3.6,4.0,57,0.00,,,0.00,VWS V13.01,2012-06-17 13:24:00,
2012-06-17 08:29:00,81.1,63.9,30.03,East,98,4.0,4.0,56,0.00,,,0.00,VWS V13.01,2012-06-17 13:29:00,
2012-06-17 08:34:00,81.4,63.7,30.03,SE,128,2.7,4.0,55,0.00,,,0.00,VWS V13.01,2012-06-17 13:34:00,
2012-06-17 08:39:00,81.6,63.9,30.03,SE,129,3.1,4.0,55,0.00,,,0.00,VWS V13.01,2012-06-17 13:39:00,
2012-06-17 08:44:00,81.6,63.4,30.03,NNE,33,2.7,3.1,54,0.00,,,0.00,VWS V13.01,2012-06-17 13:44:00,
2012-06-17 08:49:00,81.6,63.9,30.03,ESE,106,2.7,3.1,55,0.00,,,0.00,VWS V13.01,2012-06-17 13:49:00,
2012-06-17 08:54:00,81.8,63.5,30.03,ENE,60,2.2,2.7,54,0.00,,,0.00,VWS V13.01,2012-06-17 13:54:00,
2012-06-17 08:59:00,82.2,63.9,30.03,ESE,111,4.0,5.8,54,0.00,,,0.00,VWS V13.01,2012-06-17 13:59:00,
2012-06-17 09:04:00,82.5,63.7,30.03,East,90,0.0,0.0,53,0.00,,,0.00,VWS V13.01,2012-06-17 14:04:00,
2012-06-17 09:09:00,83.2,63.8,30.03,South,172,2.7,4.0,52,0.00,,,0.00,VWS V13.01,2012-06-17 14:09:00,
2012-06-17 09:14:00,83.6,63.0,30.03,South,170,5.8,5.8,50,0.00,,,0.00,VWS V13.01,2012-06-17 14:14:00,
2012-06-17 09:19:00,83.8,63.2,30.03,ESE,113,2.7,3.1,50,0.00,,,0.00,VWS V13.01,2012-06-17 14:19:00,
2012-06-17 09:24:00,84.0,63.3,30.03,East,100,0.0,0.0,50,0.00,,,0.00,VWS V13.01,2012-06-17 14:24:00,
2012-06-17 09:29:00,84.3,63.1,30.03,East,101,4.0,4.5,49,0.00,,,0.00,VWS V13.01,2012-06-17 14:29:00,
2012-06-17 09:34:00,84.9,63.0,30.03,North,4,0.0,0.0,48,0.00,,,0.00,VWS V13.01,2012-06-17 14:34:00,
2012-06-17 09:39:00,85.6,62.5,30.03,East,100,3.6,3.6,46,0.00,,,0.00,VWS V13.01,2012-06-17 14:39:00,
2012-06-17 09:44:00,86.1,62.3,30.03,NNW,327,0.0,0.0,45,0.00,,,0.00,VWS V13.01,2012-06-17 14:44:00,
2012-06-17 09:49:00,86.3,61.8,30.03,NNW,340,0.0,0.0,44,0.00,,,0.00,VWS V13.01,2012-06-17 14:49:00,
2012-06-17 09:54:00,86.7,62.2,30.03,South,170,2.7,3.1,44,0.00,,,0.00,VWS V13.01,2012-06-17 14:54:00,
2012-06-17 09:59:00,86.7,62.2,30.00,SW,231,2.7,3.1,44,0.00,,,0.00,VWS V13.01,2012-06-17 14:59:00,
2012-06-17 10:04:00,86.7,62.2,30.00,WSW,252,0.0,0.0,44,0.00,,,0.00,VWS V13.01,2012-06-17 15:04:00,
2012-06-17 10:09:00,86.7,61.5,30.00,SSW,200,0.0,3.1,43,0.00,,,0.00,VWS V13.01,2012-06-17 15:09:00,
2012-06-17 10:14:00,86.8,61.0,30.00,SE,128,3.1,3.6,42,0.00,,,0.00,VWS V13.01,2012-06-17 15:14:00,
2012-06-17 10:19:00,87.0,61.2,30.00,SSE,150,0.0,0.0,42,0.00,,,0.00,VWS V13.01,2012-06-17 15:19:00,
2012-06-17 10:24:00,87.2,60.7,30.00,SE,143,2.7,4.9,41,0.00,,,0.00,VWS V13.01,2012-06-17 15:24:00,
2012-06-17 10:29:00,87.6,61.0,30.00,East,95,5.4,6.3,41,0.00,,,0.00,VWS V13.01,2012-06-17 15:29:00,
2012-06-17 10:34:00,87.7,61.1,30.00,SSE,147,0.0,0.0,41,0.00,,,0.00,VWS V13.01,2012-06-17 15:34:00,
2012-06-17 10:39:00,88.3,61.6,30.00,WSW,255,2.7,2.7,41,0.00,,,0.00,VWS V13.01,2012-06-17 15:39:00,
2012-06-17 10:44:00,88.8,61.4,30.00,SSW,209,2.7,3.6,40,0.00,,,0.00,VWS V13.01,2012-06-17 15:44:00,
2012-06-17 10:49:00,89.0,61.6,30.00,ENE,73,4.9,6.3,40,0.00,,,0.00,VWS V13.01,2012-06-17 15:49:00,
2012-06-17 10:54:00,89.2,61.0,30.00,SE,143,4.0,6.3,39,0.00,,,0.00,VWS V13.01,2012-06-17 15:54:00,
2012-06-17 10:59:00,89.0,60.8,30.00,SSE,159,4.9,7.2,39,0.00,,,0.00,VWS V13.01,2012-06-17 15:59:00,
2012-06-17 11:04:00,89.4,61.2,29.97,SSW,195,5.8,8.1,39,0.00,,,0.00,VWS V13.01,2012-06-17 16:04:00,
2012-06-17 11:09:00,89.5,61.3,29.97,ESE,110,5.4,5.4,39,0.00,,,0.00,VWS V13.01,2012-06-17 16:09:00,
2012-06-17 11:14:00,89.7,61.5,29.97,SSW,195,5.4,6.3,39,0.00,,,0.00,VWS V13.01,2012-06-17 16:14:00,
2012-06-17 11:19:00,89.5,61.3,29.97,WSW,247,5.8,5.8,39,0.00,,,0.00,VWS V13.01,2012-06-17 16:19:00,
2012-06-17 11:24:00,89.4,61.2,29.97,South,174,6.3,6.3,39,0.00,,,0.00,VWS V13.01,2012-06-17 16:24:00,
2012-06-17 11:29:00,88.6,61.2,29.97,SE,130,4.0,5.8,40,0.00,,,0.00,VWS V13.01,2012-06-17 16:29:00,
2012-06-17 11:34:00,89.2,61.0,29.97,SE,124,5.4,5.8,39,0.00,,,0.00,VWS V13.01,2012-06-17 16:34:00,
2012-06-17 11:38:00,89.4,61.2,29.97,SSE,153,3.1,5.4,39,0.00,,,0.00,VWS V13.01,2012-06-17 16:38:00,
2012-06-17 11:43:00,89.4,61.9,29.97,SSW,192,5.8,5.8,40,0.00,,,0.00,VWS V13.01,2012-06-17 16:43:00,
2012-06-17 11:48:00,89.7,61.5,29.97,ESE,113,8.1,8.1,39,0.00,,,0.00,VWS V13.01,2012-06-17 16:48:00,
2012-06-17 11:53:00,89.9,61.7,29.97,East,84,3.1,3.6,39,0.00,,,0.00,VWS V13.01,2012-06-17 16:53:00,
2012-06-17 11:58:00,90.1,61.1,29.97,SE,127,3.1,3.1,38,0.00,,,0.00,VWS V13.01,2012-06-17 16:58:00,
2012-06-17 12:03:00,90.6,61.6,29.97,SW,227,4.9,6.3,38,0.00,,,0.00,VWS V13.01,2012-06-17 17:03:00,
2012-06-17 12:08:00,90.6,61.6,29.97,South,173,6.3,8.1,38,0.00,,,0.00,VWS V13.01,2012-06-17 17:08:00,
2012-06-17 12:13:00,91.2,62.0,29.97,SSE,154,8.7,10.5,38,0.00,,,0.00,VWS V13.01,2012-06-17 17:13:00,
2012-06-17 12:18:00,91.0,61.1,29.94,South,172,6.3,8.1,37,0.00,,,0.00,VWS V13.01,2012-06-17 17:18:00,
2012-06-17 12:23:00,91.0,61.9,29.94,SSW,193,5.4,5.4,38,0.00,,,0.00,VWS V13.01,2012-06-17 17:23:00,
2012-06-17 12:28:00,91.7,62.5,29.94,SSW,193,8.7,8.7,38,0.00,,,0.00,VWS V13.01,2012-06-17 17:28:00,
2012-06-17 12:33:00,92.4,61.6,29.94,ESE,119,5.4,7.6,36,0.00,,,0.00,VWS V13.01,2012-06-17 17:33:00,
2012-06-17 12:38:00,92.6,62.5,29.94,SE,134,5.4,5.4,37,0.00,,,0.00,VWS V13.01,2012-06-17 17:38:00,
2012-06-17 12:43:00,93.1,61.5,29.94,SSE,158,5.8,8.1,35,0.00,,,0.00,VWS V13.01,2012-06-17 17:43:00,
2012-06-17 12:48:00,92.8,61.1,29.94,SW,234,7.6,7.6,35,0.00,,,0.00,VWS V13.01,2012-06-17 17:48:00,
2012-06-17 12:53:00,92.6,60.2,29.94,SE,143,3.1,5.4,34,0.00,,,0.00,VWS V13.01,2012-06-17 17:53:00,
2012-06-17 12:58:00,92.6,61.0,29.94,East,98,3.6,3.6,35,0.00,,,0.00,VWS V13.01,2012-06-17 17:58:00,
2012-06-17 13:03:00,93.1,60.6,29.94,East,91,4.0,4.0,34,0.00,,,0.00,VWS V13.01,2012-06-17 18:03:00,
2012-06-17 13:08:00,93.5,61.0,29.94,South,183,7.6,7.6,34,0.00,,,0.00,VWS V13.01,2012-06-17 18:08:00,
2012-06-17 13:13:00,93.1,60.6,29.94,South,188,3.6,3.6,34,0.00,,,0.00,VWS V13.01,2012-06-17 18:13:00,
2012-06-17 13:18:00,92.2,59.8,29.94,SSE,160,7.2,8.1,34,0.00,,,0.00,VWS V13.01,2012-06-17 18:18:00,
2012-06-17 13:23:00,92.6,60.2,29.94,SE,139,4.0,6.3,34,0.00,,,0.00,VWS V13.01,2012-06-17 18:23:00,
2012-06-17 13:28:00,93.3,60.8,29.94,ESE,121,3.6,3.6,34,0.00,,,0.00,VWS V13.01,2012-06-17 18:28:00,
2012-06-17 13:33:00,93.1,60.6,29.94,SW,217,2.2,3.1,34,0.00,,,0.00,VWS V13.01,2012-06-17 18:33:00,
2012-06-17 13:38:00,93.5,60.1,29.94,East,87,3.6,5.4,33,0.00,,,0.00,VWS V13.01,2012-06-17 18:38:00,
2012-06-17 13:43:00,94.2,59.9,29.94,South,185,5.8,8.1,32,0.00,,,0.00,VWS V13.01,2012-06-17 18:43:00,
2012-06-17 13:48:00,93.9,59.6,29.94,South,171,8.1,8.1,32,0.00,,,0.00,VWS V13.01,2012-06-17 18:48:00,
2012-06-17 13:53:00,94.2,59.9,29.94,SE,132,3.6,4.9,32,0.00,,,0.00,VWS V13.01,2012-06-17 18:53:00,
2012-06-17 13:58:00,94.8,59.4,29.94,SW,214,3.6,5.8,31,0.00,,,0.00,VWS V13.01,2012-06-17 18:58:00,
2012-06-17 14:03:00,94.4,59.1,29.94,South,179,4.9,7.6,31,0.00,,,0.00,VWS V13.01,2012-06-17 19:03:00,
2012-06-17 14:08:00,94.6,59.3,29.94,East,89,2.7,8.1,31,0.00,,,0.00,VWS V13.01,2012-06-17 19:08:00,
2012-06-17 14:13:00,94.8,59.4,29.94,SSE,159,3.1,5.4,31,0.00,,,0.00,VWS V13.01,2012-06-17 19:13:00,
2012-06-17 14:18:00,94.4,59.1,29.91,East,84,3.6,5.8,31,0.00,,,0.00,VWS V13.01,2012-06-17 19:18:00,
2012-06-17 14:23:00,94.2,59.0,29.91,SSE,159,7.6,7.6,31,0.00,,,0.00,VWS V13.01,2012-06-17 19:23:00,
2012-06-17 14:28:00,94.0,57.9,29.91,East,94,4.0,5.8,30,0.00,,,0.00,VWS V13.01,2012-06-17 19:28:00,
2012-06-17 14:33:00,94.0,57.9,29.91,SSW,208,3.1,6.3,30,0.00,,,0.00,VWS V13.01,2012-06-17 19:33:00,
2012-06-17 14:38:00,93.7,57.6,29.91,East,99,0.0,3.6,30,0.00,,,0.00,VWS V13.01,2012-06-17 19:38:00,
2012-06-17 14:43:00,94.4,59.1,29.91,SSE,168,2.7,2.7,31,0.00,,,0.00,VWS V13.01,2012-06-17 19:43:00,
2012-06-17 14:48:00,95.1,59.8,29.91,South,189,3.1,5.4,31,0.00,,,0.00,VWS V13.01,2012-06-17 19:48:00,
2012-06-17 14:53:00,94.9,58.7,29.91,WSW,254,5.8,5.8,30,0.00,,,0.00,VWS V13.01,2012-06-17 19:53:00,
2012-06-17 14:58:00,94.8,59.4,29.91,WSW,247,5.8,5.8,31,0.00,,,0.00,VWS V13.01,2012-06-17 19:58:00,
2012-06-17 15:03:00,94.8,58.5,29.91,South,170,4.0,4.0,30,0.00,,,0.00,VWS V13.01,2012-06-17 20:03:00,
2012-06-17 15:08:00,94.4,58.2,29.91,NE,38,4.5,4.5,30,0.00,,,0.00,VWS V13.01,2012-06-17 20:08:00,
2012-06-17 15:13:00,94.6,58.4,29.91,East,96,3.1,4.9,30,0.00,,,0.00,VWS V13.01,2012-06-17 20:13:00,
2012-06-17 15:18:00,94.9,58.7,29.91,SSW,201,6.3,6.3,30,0.00,,,0.00,VWS V13.01,2012-06-17 20:18:00,
2012-06-17 15:23:00,95.7,59.3,29.91,SW,235,3.6,5.4,30,0.00,,,0.00,VWS V13.01,2012-06-17 20:23:00,
2012-06-17 15:28:00,96.4,59.0,29.91,SSW,199,6.3,7.2,29,0.00,,,0.00,VWS V13.01,2012-06-17 20:28:00,
2012-06-17 15:33:00,97.1,59.6,29.88,WSW,249,5.8,5.8,29,0.00,,,0.00,VWS V13.01,2012-06-17 20:33:00,
2012-06-17 15:38:00,97.3,58.8,29.88,SSE,163,6.3,7.6,28,0.00,,,0.00,VWS V13.01,2012-06-17 20:38:00,
2012-06-17 15:43:00,96.9,59.4,29.88,SSW,205,3.1,4.0,29,0.00,,,0.00,VWS V13.01,2012-06-17 20:43:00,
2012-06-17 15:48:00,97.3,58.8,29.88,SW,214,3.6,4.0,28,0.00,,,0.00,VWS V13.01,2012-06-17 20:48:00,
2012-06-17 15:53:00,96.7,58.3,29.88,SE,143,3.6,7.6,28,0.00,,,0.00,VWS V13.01,2012-06-17 20:53:00,
2012-06-17 15:58:00,96.0,58.7,29.88,SSE,154,6.7,8.1,29,0.00,,,0.00,VWS V13.01,2012-06-17 20:58:00,
2012-06-17 16:03:00,95.3,58.0,29.88,SSE,166,4.0,5.4,29,0.00,,,0.00,VWS V13.01,2012-06-17 21:03:00,
2012-06-17 16:08:00,95.7,58.3,29.88,WSW,239,2.7,6.3,29,0.00,,,0.00,VWS V13.01,2012-06-17 21:08:00,
2012-06-17 16:13:00,95.7,58.3,29.88,SSE,168,6.3,7.6,29,0.00,,,0.00,VWS V13.01,2012-06-17 21:13:00,
2012-06-17 16:18:00,96.2,58.8,29.88,SE,125,7.6,7.6,29,0.00,,,0.00,VWS V13.01,2012-06-17 21:18:00,
2012-06-17 16:23:00,96.7,58.3,29.88,SW,222,4.9,8.3,28,0.00,,,0.00,VWS V13.01,2012-06-17 21:23:00,
2012-06-17 16:28:00,96.7,58.3,29.88,SW,228,4.9,4.9,28,0.00,,,0.00,VWS V13.01,2012-06-17 21:28:00,
2012-06-17 16:33:00,96.7,58.3,29.88,South,169,8.1,8.7,28,0.00,,,0.00,VWS V13.01,2012-06-17 21:33:00,
2012-06-17 16:38:00,95.8,58.5,29.88,South,171,3.1,6.3,29,0.00,,,0.00,VWS V13.01,2012-06-17 21:38:00,
2012-06-17 16:43:00,95.3,58.0,29.88,WSW,239,4.0,8.1,29,0.00,,,0.00,VWS V13.01,2012-06-17 21:43:00,
2012-06-17 16:48:00,95.1,57.9,29.85,South,179,5.8,5.8,29,0.00,,,0.00,VWS V13.01,2012-06-17 21:48:00,
2012-06-17 16:53:00,95.7,58.3,29.85,ESE,109,3.1,4.9,29,0.00,,,0.00,VWS V13.01,2012-06-17 21:53:00,
2012-06-17 16:58:00,95.3,57.1,29.85,South,185,4.0,4.5,28,0.00,,,0.00,VWS V13.01,2012-06-17 21:58:00,
2012-06-17 17:03:00,95.7,57.4,29.85,SE,143,0.0,2.2,28,0.00,,,0.00,VWS V13.01,2012-06-17 22:03:00,
2012-06-17 17:08:00,96.2,57.8,29.85,South,173,8.3,9.2,28,0.00,,,0.00,VWS V13.01,2012-06-17 22:08:00,
2012-06-17 17:13:00,95.7,57.4,29.85,SE,131,7.6,7.6,28,0.00,,,0.00,VWS V13.01,2012-06-17 22:13:00,
2012-06-17 17:18:00,95.1,57.9,29.85,SE,135,5.4,5.4,29,0.00,,,0.00,VWS V13.01,2012-06-17 22:18:00,
2012-06-17 17:23:00,95.5,58.2,29.85,SSE,161,3.6,5.4,29,0.00,,,0.00,VWS V13.01,2012-06-17 22:23:00,
2012-06-17 17:28:00,95.1,57.9,29.85,SSE,160,4.9,5.8,29,0.00,,,0.00,VWS V13.01,2012-06-17 22:28:00,
2012-06-17 17:33:00,94.8,57.6,29.85,SE,124,4.0,5.8,29,0.00,,,0.00,VWS V13.01,2012-06-17 22:33:00,
2012-06-17 17:38:00,94.0,57.0,29.85,SE,124,3.1,4.5,29,0.00,,,0.00,VWS V13.01,2012-06-17 22:38:00,
2012-06-17 17:43:00,93.7,57.6,29.85,South,170,3.6,5.4,30,0.00,,,0.00,VWS V13.01,2012-06-17 22:43:00,
2012-06-17 17:48:00,93.1,57.1,29.83,South,184,3.1,3.6,30,0.00,,,0.00,VWS V13.01,2012-06-17 22:48:00,
2012-06-17 17:53:00,93.1,57.1,29.83,South,184,7.6,8.3,30,0.00,,,0.00,VWS V13.01,2012-06-17 22:53:00,
2012-06-17 17:58:00,93.1,57.1,29.83,South,187,4.9,4.9,30,0.00,,,0.00,VWS V13.01,2012-06-17 22:58:00,
2012-06-17 18:03:00,93.5,57.5,29.83,SSE,160,5.8,6.3,30,0.00,,,0.00,VWS V13.01,2012-06-17 23:03:00,
2012-06-17 18:08:00,93.7,57.6,29.83,SSW,200,2.7,4.5,30,0.00,,,0.00,VWS V13.01,2012-06-17 23:08:00,
2012-06-17 18:13:00,94.0,57.0,29.83,SSE,157,8.7,8.7,29,0.00,,,0.00,VWS V13.01,2012-06-17 23:13:00,
2012-06-17 18:18:00,94.2,57.1,29.85,SSE,158,5.8,5.8,29,0.00,,,0.00,VWS V13.01,2012-06-17 23:18:00,
2012-06-17 18:23:00,94.2,57.1,29.85,SSE,150,3.1,3.6,29,0.00,,,0.00,VWS V13.01,2012-06-17 23:23:00,
2012-06-17 18:28:00,94.4,57.3,29.85,SSE,156,4.0,4.0,29,0.00,,,0.00,VWS V13.01,2012-06-17 23:28:00,
2012-06-17 18:33:00,94.8,57.6,29.85,East,92,4.0,5.4,29,0.00,,,0.00,VWS V13.01,2012-06-17 23:33:00,
2012-06-17 18:38:00,94.8,57.6,29.85,SSE,164,5.8,5.8,29,0.00,,,0.00,VWS V13.01,2012-06-17 23:38:00,
2012-06-17 18:43:00,94.6,57.4,29.85,SE,143,4.0,5.4,29,0.00,,,0.00,VWS V13.01,2012-06-17 23:43:00,
2012-06-17 18:48:00,94.4,57.3,29.85,ESE,105,4.9,4.9,29,0.00,,,0.00,VWS V13.01,2012-06-17 23:48:00,
2012-06-17 18:53:00,94.2,57.1,29.85,SSE,158,5.8,6.3,29,0.00,,,0.00,VWS V13.01,2012-06-17 23:53:00,
2012-06-17 18:58:00,94.0,57.0,29.85,SE,143,2.7,3.1,29,0.00,,,0.00,VWS V13.01,2012-06-17 23:58:00,
2012-06-17 19:03:00,94.0,57.0,29.85,SSE,150,3.6,8.7,29,0.00,,,0.00,VWS V13.01,2012-06-18 00:03:00,
2012-06-17 19:08:00,93.9,56.8,29.85,South,172,6.7,6.7,29,0.00,,,0.00,VWS V13.01,2012-06-18 00:08:00,
2012-06-17 19:13:00,93.7,56.7,29.85,ESE,116,3.6,3.6,29,0.00,,,0.00,VWS V13.01,2012-06-18 00:13:00,
2012-06-17 19:18:00,93.3,56.3,29.85,SSE,163,3.1,5.8,29,0.00,,,0.00,VWS V13.01,2012-06-18 00:18:00,
2012-06-17 19:23:00,93.3,56.3,29.85,South,175,5.8,6.3,29,0.00,,,0.00,VWS V13.01,2012-06-18 00:23:00,
2012-06-17 19:28:00,93.1,56.2,29.85,SSW,209,3.6,3.6,29,0.00,,,0.00,VWS V13.01,2012-06-18 00:28:00,
2012-06-17 19:33:00,93.0,56.0,29.85,SSE,165,5.8,8.1,29,0.00,,,0.00,VWS V13.01,2012-06-18 00:33:00,
2012-06-17 19:38:00,92.8,55.9,29.85,SSE,166,3.1,3.1,29,0.00,,,0.00,VWS V13.01,2012-06-18 00:38:00,
2012-06-17 19:43:00,92.8,55.9,29.85,ESE,116,3.1,3.6,29,0.00,,,0.00,VWS V13.01,2012-06-18 00:43:00,
2012-06-17 19:48:00,92.6,56.7,29.83,SSE,157,4.0,5.8,30,0.00,,,0.00,VWS V13.01,2012-06-18 00:48:00,
2012-06-17 19:53:00,92.2,56.4,29.83,South,184,6.7,6.7,30,0.00,,,0.00,VWS V13.01,2012-06-18 00:53:00,
2012-06-17 19:58:00,92.1,56.2,29.83,SSW,192,4.0,4.9,30,0.00,,,0.00,VWS V13.01,2012-06-18 00:58:00,
2012-06-17 20:03:00,91.7,55.9,29.85,South,169,5.4,5.4,30,0.00,,,0.00,VWS V13.01,2012-06-18 01:03:00,
2012-06-17 20:08:00,91.5,56.7,29.85,SE,126,5.8,5.8,31,0.00,,,0.00,VWS V13.01,2012-06-18 01:08:00,
2012-06-17 20:12:00,91.3,56.5,29.85,South,176,5.4,5.4,31,0.00,,,0.00,VWS V13.01,2012-06-18 01:12:00,
2012-06-17 20:17:00,91.0,56.2,29.85,South,169,5.8,5.8,31,0.00,,,0.00,VWS V13.01,2012-06-18 01:17:00,
2012-06-17 20:22:00,90.6,55.9,29.85,SSE,159,4.0,5.4,31,0.00,,,0.00,VWS V13.01,2012-06-18 01:22:00,
2012-06-17 20:27:00,90.4,56.6,29.85,South,173,4.9,4.9,32,0.00,,,0.00,VWS V13.01,2012-06-18 01:27:00,
2012-06-17 20:32:00,90.3,56.4,29.85,SE,132,4.0,4.9,32,0.00,,,0.00,VWS V13.01,2012-06-18 01:32:00,
2012-06-17 20:37:00,90.1,56.3,29.85,SSE,147,3.6,5.8,32,0.00,,,0.00,VWS V13.01,2012-06-18 01:37:00,
2012-06-17 20:42:00,89.7,56.0,29.85,SSE,159,4.9,4.9,32,0.00,,,0.00,VWS V13.01,2012-06-18 01:42:00,
2012-06-17 20:47:00,89.5,56.7,29.85,South,171,0.0,0.0,33,0.00,,,0.00,VWS V13.01,2012-06-18 01:47:00,
2012-06-17 20:52:00,89.2,56.3,29.85,SSE,165,2.2,2.2,33,0.00,,,0.00,VWS V13.01,2012-06-18 01:52:00,
2012-06-17 20:57:00,88.8,56.9,29.85,SSE,150,0.0,0.0,34,0.00,,,0.00,VWS V13.01,2012-06-18 01:57:00,
2012-06-17 21:02:00,88.3,57.2,29.83,ESE,123,0.0,0.0,35,0.00,,,0.00,VWS V13.01,2012-06-18 02:02:00,
2012-06-17 21:07:00,87.9,57.7,29.83,ESE,123,0.0,0.0,36,0.00,,,0.00,VWS V13.01,2012-06-18 02:07:00,
2012-06-17 21:12:00,87.6,57.3,29.83,SE,132,0.0,0.0,36,0.00,,,0.00,VWS V13.01,2012-06-18 02:12:00,
2012-06-17 21:17:00,87.4,57.9,29.85,South,177,0.0,0.0,37,0.00,,,0.00,VWS V13.01,2012-06-18 02:17:00,
2012-06-17 21:22:00,87.2,58.5,29.85,SSW,192,0.0,0.0,38,0.00,,,0.00,VWS V13.01,2012-06-18 02:22:00,
2012-06-17 21:27:00,86.7,58.8,29.85,SSW,192,0.0,0.0,39,0.00,,,0.00,VWS V13.01,2012-06-18 02:27:00,
2012-06-17 21:32:00,86.3,58.5,29.85,SSW,192,0.0,0.0,39,0.00,,,0.00,VWS V13.01,2012-06-18 02:32:00,
2012-06-17 21:37:00,86.1,58.3,29.85,SSW,192,0.0,0.0,39,0.00,,,0.00,VWS V13.01,2012-06-18 02:37:00,
2012-06-17 21:42:00,85.9,58.8,29.85,SSW,192,0.0,0.0,40,0.00,,,0.00,VWS V13.01,2012-06-18 02:42:00,
2012-06-17 21:47:00,85.8,58.7,29.85,SSW,192,0.0,0.0,40,0.00,,,0.00,VWS V13.01,2012-06-18 02:47:00,
2012-06-17 21:52:00,85.4,58.4,29.85,SSW,192,0.0,0.0,40,0.00,,,0.00,VWS V13.01,2012-06-18 02:52:00,
2012-06-17 21:57:00,85.0,58.7,29.85,SSW,192,0.0,0.0,41,0.00,,,0.00,VWS V13.01,2012-06-18 02:57:00,
2012-06-17 22:02:00,84.5,58.9,29.85,SSW,192,0.0,0.0,42,0.00,,,0.00,VWS V13.01,2012-06-18 03:02:00,
2012-06-17 22:07:00,83.8,58.9,29.85,SW,215,0.0,0.0,43,0.00,,,0.00,VWS V13.01,2012-06-18 03:07:00,
2012-06-17 22:12:00,83.2,59.1,29.85,SW,215,0.0,0.0,44,0.00,,,0.00,VWS V13.01,2012-06-18 03:12:00,
2012-06-17 22:17:00,83.1,59.5,29.85,SW,215,0.0,0.0,45,0.00,,,0.00,VWS V13.01,2012-06-18 03:17:00,
2012-06-17 22:22:00,82.9,59.4,29.85,SW,215,0.0,0.0,45,0.00,,,0.00,VWS V13.01,2012-06-18 03:22:00,
2012-06-17 22:27:00,82.9,59.4,29.85,SW,215,0.0,0.0,45,0.00,,,0.00,VWS V13.01,2012-06-18 03:27:00,
2012-06-17 22:32:00,82.7,59.2,29.85,SW,215,0.0,0.0,45,0.00,,,0.00,VWS V13.01,2012-06-18 03:32:00,
2012-06-17 22:37:00,82.3,58.9,29.85,SW,216,0.0,0.0,45,0.00,,,0.00,VWS V13.01,2012-06-18 03:37:00,
2012-06-17 22:42:00,82.2,60.0,29.85,SW,216,0.0,0.0,47,0.00,,,0.00,VWS V13.01,2012-06-18 03:42:00,
2012-06-17 22:47:00,81.8,60.2,29.85,SW,216,0.0,0.0,48,0.00,,,0.00,VWS V13.01,2012-06-18 03:47:00,
2012-06-17 22:52:00,81.4,60.5,29.85,SW,216,0.0,0.0,49,0.00,,,0.00,VWS V13.01,2012-06-18 03:52:00,
2012-06-17 22:57:00,80.9,60.5,29.85,SW,216,0.0,0.0,50,0.00,,,0.00,VWS V13.01,2012-06-18 03:57:00,
2012-06-17 23:00:00,80.7,60.4,29.85,SW,216,0.0,0.0,50,0.00,,,0.00,VWS V13.01,2012-06-18 04:00:00,
2012-06-17 23:05:00,80.2,60.4,29.85,SW,216,0.0,0.0,51,0.00,,,0.00,VWS V13.01,2012-06-18 04:05:00,
2012-06-17 23:10:00,79.6,60.5,29.85,NNE,26,0.0,0.0,52,0.00,,,0.00,VWS V13.01,2012-06-18 04:10:00,
2012-06-17 23:15:00,79.1,60.5,29.85,NNE,26,0.0,0.0,53,0.00,,,0.00,VWS V13.01,2012-06-18 04:15:00,
2012-06-17 23:20:00,78.9,60.3,29.85,NNE,26,0.0,0.0,53,0.00,,,0.00,VWS V13.01,2012-06-18 04:20:00,
2012-06-17 23:25:00,78.7,60.2,29.85,NNE,26,0.0,0.0,53,0.00,,,0.00,VWS V13.01,2012-06-18 04:25:00,
2012-06-17 23:30:00,78.7,60.7,29.85,NW,316,0.0,0.0,54,0.00,,,0.00,VWS V13.01,2012-06-18 04:30:00,
2012-06-17 23:35:00,78.7,60.2,29.85,NW,316,0.0,0.0,53,0.00,,,0.00,VWS V13.01,2012-06-18 04:35:00,
2012-06-17 23:40:00,78.6,60.5,29.85,NW,316,0.0,0.0,54,0.00,,,0.00,VWS V13.01,2012-06-18 04:40:00,
2012-06-17 23:45:00,78.6,60.5,29.85,NW,323,0.0,0.0,54,0.00,,,0.00,VWS V13.01,2012-06-18 04:45:00,
2012-06-17 23:50:00,78.2,60.7,29.85,NW,323,0.0,0.0,55,0.00,,,0.00,VWS V13.01,2012-06-18 04:50:00,
2012-06-17 23:55:00,78.0,60.6,29.85,NW,323,0.0,0.0,55,0.00,,,0.00,VWS V13.01,2012-06-18 04:55:00,